TimeCST,TemperatureF,Dew PointF,Humidity,Sea Level PressureIn,VisibilityMPH,Wind Direction,Wind SpeedMPH,Gust SpeedMPH,PrecipitationIn,Events,Conditions,WindDirDegrees,DateUTC
12:53 AM,28.0,21.0,75,30.30,10.0,NNW,8.1,-,N/A,,Clear,340,2012-11-28 06:53:00
1:53 AM,28.9,21.9,75,30.30,10.0,NNE,4.6,-,N/A,,Clear,20,2012-11-28 07:53:00
2:53 AM,27.0,19.9,75,30.32,10.0,NE,5.8,-,N/A,,Clear,50,2012-11-28 08:53:00
3:53 AM,25.0,19.9,81,30.32,10.0,ENE,3.5,-,N/A,,Clear,70,2012-11-28 09:53:00
4:53 AM,24.1,19.9,84,30.32,10.0,NE,4.6,-,N/A,,Clear,50,2012-11-28 10:53:00
5:53 AM,23.0,19.9,88,30.35,10.0,NNE,4.6,-,N/A,,Clear,30,2012-11-28 11:53:00
6:53 AM,21.0,18.0,88,30.36,10.0,North,3.5,-,N/A,,Clear,360,2012-11-28 12:53:00
7:53 AM,21.9,19.0,89,30.37,8.0,NE,4.6,-,N/A,,Clear,40,2012-11-28 13:53:00
8:53 AM,28.0,24.1,85,30.37,8.0,Calm,Calm,-,N/A,,Clear,0,2012-11-28 14:53:00
9:53 AM,34.0,26.1,73,30.36,10.0,Calm,Calm,-,N/A,,Clear,0,2012-11-28 15:53:00
10:53 AM,39.0,26.1,60,30.34,10.0,SSE,6.9,-,N/A,,Clear,150,2012-11-28 16:53:00
12:53 PM,50.0,27.0,41,30.26,10.0,South,8.1,-,N/A,,Clear,170,2012-11-28 18:53:00
1:53 PM,54.0,28.0,37,30.23,10.0,South,13.8,-,N/A,,Clear,180,2012-11-28 19:53:00
2:53 PM,55.0,28.0,35,30.19,10.0,South,15.0,-,N/A,,Clear,170,2012-11-28 20:53:00
3:53 PM,54.0,28.9,38,30.17,10.0,South,13.8,-,N/A,,Clear,180,2012-11-28 21:53:00
4:53 PM,48.9,28.0,44,30.17,10.0,SSE,6.9,-,N/A,,Clear,150,2012-11-28 22:53:00
5:53 PM,44.1,28.0,53,30.17,10.0,South,10.4,-,N/A,,Clear,170,2012-11-28 23:53:00
6:53 PM,39.9,28.0,63,30.17,10.0,South,10.4,-,N/A,,Clear,170,2012-11-29 00:53:00
7:53 PM,39.0,28.0,65,30.16,10.0,South,9.2,-,N/A,,Clear,170,2012-11-29 01:53:00
8:53 PM,37.9,28.9,70,30.16,10.0,SSE,8.1,-,N/A,,Clear,160,2012-11-29 02:53:00
9:53 PM,36.0,28.0,73,30.13,10.0,SSE,11.5,-,N/A,,Clear,160,2012-11-29 03:53:00
10:53 PM,35.1,28.0,76,30.11,10.0,South,6.9,-,N/A,,Clear,170,2012-11-29 04:53:00
11:53 PM,32.0,27.0,82,30.09,10.0,South,10.4,-,N/A,,Clear,170,2012-11-29 05:53:00